CCM88CE LFMN-LFKJ

Flight info

Callsign CCM88CE
Flight time 0h 28m
Altitude 13000
Route VAREK
Aircraft A320/M-SDE3FGHIRWY/LB1

Departure

Time 2026-05-05 18:12
Airport Nice-Côte d'Azur Airport (LFMN)

Arrival

Time 2026-05-05 18:40
Airport Ajaccio Napoléon Bonaparte airport (LFKJ)
Time Latitude Longitude Altitude Speed Heading
2026-05-05 18:02 43.65608 7.20284 22 ft 0 kts 316°
2026-05-05 18:07 43.65607 7.20284 22 ft 0 kts 316°
2026-05-05 18:07 43.65600 7.20295 25 ft 2 kts 316°
2026-05-05 18:07 43.65589 7.20309 22 ft 2 kts 316°
2026-05-05 18:07 43.65578 7.20323 22 ft 2 kts 316°
2026-05-05 18:08 43.65566 7.20339 25 ft 2 kts 297°
2026-05-05 18:08 43.65562 7.20356 24 ft 2 kts 256°
2026-05-05 18:08 43.65568 7.20373 23 ft 5 kts 225°
2026-05-05 18:08 43.65580 7.20390 25 ft 0 kts 225°
2026-05-05 18:09 43.65579 7.20389 24 ft 2 kts 225°
2026-05-05 18:09 43.65554 7.20354 23 ft 9 kts 225°
2026-05-05 18:09 43.65496 7.20274 22 ft 15 kts 225°
2026-05-05 18:10 43.65415 7.20179 22 ft 12 kts 197°
2026-05-05 18:10 43.65339 7.20211 22 ft 16 kts 141°
2026-05-05 18:10 43.65224 7.20366 22 ft 32 kts 134°
2026-05-05 18:10 43.65059 7.20599 22 ft 34 kts 135°
2026-05-05 18:11 43.64998 7.20713 22 ft 9 kts 86°
2026-05-05 18:11 43.65030 7.20749 22 ft 0 kts 31°
2026-05-05 18:11 43.65031 7.20750 22 ft 2 kts 31°
2026-05-05 18:11 43.65182 7.20952 23 ft 67 kts 45°
2026-05-05 18:12 43.65671 7.21622 23 ft 128 kts 45°
2026-05-05 18:12 43.66386 7.22630 303 ft 149 kts 49°
2026-05-05 18:12 43.66985 7.23759 922 ft 148 kts 70°
2026-05-05 18:12 43.67053 7.25162 1547 ft 150 kts 108°
2026-05-05 18:13 43.66476 7.26378 2020 ft 161 kts 139°
2026-05-05 18:13 43.65562 7.27464 2326 ft 184 kts 140°
2026-05-05 18:13 43.64544 7.28664 2619 ft 206 kts 140°
2026-05-05 18:13 43.63375 7.30042 2937 ft 232 kts 141°
2026-05-05 18:14 43.62088 7.31562 3388 ft 255 kts 140°
2026-05-05 18:14 43.60708 7.33196 4125 ft 264 kts 142°
2026-05-05 18:14 43.59172 7.34549 4999 ft 266 kts 157°
2026-05-05 18:14 43.57436 7.35469 5885 ft 268 kts 162°
2026-05-05 18:15 43.55672 7.36356 6748 ft 272 kts 163°
2026-05-05 18:15 43.53871 7.37263 7591 ft 276 kts 163°
2026-05-05 18:15 43.52068 7.38170 8422 ft 279 kts 163°
2026-05-05 18:15 43.50234 7.39095 9266 ft 283 kts 163°
2026-05-05 18:16 43.48363 7.40040 10077 ft 287 kts 164°
2026-05-05 18:16 43.46455 7.40999 10426 ft 308 kts 164°
2026-05-05 18:16 43.44377 7.42040 10886 ft 321 kts 164°
2026-05-05 18:16 43.42267 7.43106 11610 ft 326 kts 164°
2026-05-05 18:17 43.40113 7.44203 12400 ft 328 kts 164°
2026-05-05 18:17 43.37975 7.45292 12804 ft 331 kts 165°
2026-05-05 18:17 43.35794 7.46396 12934 ft 345 kts 165°
2026-05-05 18:17 43.33449 7.47568 12954 ft 369 kts 164°
2026-05-05 18:18 43.30990 7.48794 12945 ft 391 kts 164°
2026-05-05 18:18 43.28385 7.50100 12949 ft 402 kts 164°
2026-05-05 18:18 43.25744 7.51432 12945 ft 404 kts 163°
2026-05-05 18:18 43.23090 7.52773 12948 ft 404 kts 164°
2026-05-05 18:19 43.20479 7.54092 12947 ft 404 kts 163°
2026-05-05 18:19 43.17827 7.55428 12945 ft 404 kts 164°
2026-05-05 18:19 43.15186 7.56748 12943 ft 404 kts 164°
2026-05-05 18:19 43.12542 7.58065 12939 ft 404 kts 164°
2026-05-05 18:20 43.09929 7.59367 12941 ft 403 kts 164°
2026-05-05 18:20 43.07279 7.60685 12943 ft 403 kts 164°
2026-05-05 18:20 43.04642 7.61998 12942 ft 403 kts 164°
2026-05-05 18:20 43.02008 7.63312 12944 ft 403 kts 163°
2026-05-05 18:21 42.99354 7.64636 12948 ft 403 kts 163°
2026-05-05 18:21 42.96752 7.65934 12951 ft 403 kts 163°
2026-05-05 18:21 42.94111 7.67248 12954 ft 403 kts 163°
2026-05-05 18:21 42.91454 7.68567 12954 ft 403 kts 164°
2026-05-05 18:22 42.88810 7.69872 12955 ft 403 kts 164°
2026-05-05 18:22 42.86205 7.71151 12955 ft 403 kts 164°
2026-05-05 18:22 42.83555 7.72454 12955 ft 403 kts 164°
2026-05-05 18:22 42.80903 7.73765 12957 ft 403 kts 163°
2026-05-05 18:23 42.78304 7.75053 12957 ft 403 kts 163°
2026-05-05 18:23 42.75665 7.76359 12961 ft 403 kts 163°
2026-05-05 18:23 42.73035 7.77660 12960 ft 403 kts 163°
2026-05-05 18:23 42.70401 7.78960 12958 ft 403 kts 163°
2026-05-05 18:24 42.67748 7.80266 12953 ft 403 kts 164°
2026-05-05 18:24 42.65138 7.81547 12953 ft 403 kts 163°
2026-05-05 18:24 42.62490 7.82846 12954 ft 403 kts 163°
2026-05-05 18:24 42.59855 7.84136 12954 ft 402 kts 163°
2026-05-05 18:25 42.57221 7.85423 12955 ft 402 kts 163°
2026-05-05 18:25 42.56332 7.85857 12959 ft 402 kts 164°
2026-05-05 18:25 42.51968 7.87988 12954 ft 403 kts 163°
2026-05-05 18:25 42.49315 7.89281 12954 ft 403 kts 164°
2026-05-05 18:26 42.46663 7.90574 12955 ft 403 kts 163°
2026-05-05 18:26 42.44056 7.91845 12958 ft 403 kts 163°
2026-05-05 18:26 42.41414 7.93133 12957 ft 403 kts 163°
2026-05-05 18:26 42.38768 7.94423 12958 ft 403 kts 163°
2026-05-05 18:27 42.36164 7.95694 12957 ft 403 kts 163°
2026-05-05 18:27 42.33517 7.96986 12956 ft 403 kts 163°
2026-05-05 18:27 42.30870 7.98272 12969 ft 403 kts 163°
2026-05-05 18:27 42.28310 7.99851 12953 ft 408 kts 154°
2026-05-05 18:28 42.23835 8.04595 12950 ft 414 kts 141°
2026-05-05 18:28 42.21702 8.07213 12960 ft 414 kts 142°
2026-05-05 18:28 42.19560 8.09833 12955 ft 414 kts 142°
2026-05-05 18:29 42.17416 8.12441 12962 ft 414 kts 142°
2026-05-05 18:29 42.15271 8.15039 12957 ft 414 kts 142°
2026-05-05 18:29 42.13128 8.17634 12946 ft 414 kts 142°
2026-05-05 18:29 42.10977 8.20238 12955 ft 415 kts 142°
2026-05-05 18:30 42.09559 8.21957 12956 ft 415 kts 142°
2026-05-05 18:30 42.06724 8.25398 12931 ft 404 kts 142°
2026-05-05 18:30 42.04725 8.27835 12699 ft 372 kts 142°
2026-05-05 18:30 42.03481 8.29352 12584 ft 352 kts 142°
2026-05-05 18:31 42.01709 8.31508 12042 ft 337 kts 142°
2026-05-05 18:31 41.99975 8.33599 11283 ft 331 kts 142°
2026-05-05 18:31 41.98283 8.35627 10563 ft 325 kts 142°
2026-05-05 18:31 41.96629 8.37608 10120 ft 311 kts 142°
2026-05-05 18:32 41.95058 8.39498 9787 ft 296 kts 142°
2026-05-05 18:32 41.93544 8.41322 9407 ft 286 kts 142°
2026-05-05 18:32 41.92055 8.43108 9038 ft 293 kts 142°
2026-05-05 18:32 41.90545 8.44917 8710 ft 288 kts 142°
2026-05-05 18:33 41.89048 8.46709 8299 ft 287 kts 142°
2026-05-05 18:33 41.87563 8.48490 7907 ft 285 kts 142°
2026-05-05 18:33 41.86096 8.50250 7290 ft 281 kts 141°
2026-05-05 18:33 41.84653 8.51979 6611 ft 279 kts 141°
2026-05-05 18:34 41.83209 8.53708 5870 ft 279 kts 141°
2026-05-05 18:34 41.81769 8.55432 5150 ft 277 kts 141°
2026-05-05 18:34 41.80358 8.57122 4797 ft 261 kts 141°
2026-05-05 18:34 41.79067 8.58668 4729 ft 235 kts 141°
2026-05-05 18:35 41.77916 8.60051 4669 ft 216 kts 141°
2026-05-05 18:35 41.76791 8.61393 4605 ft 215 kts 141°
2026-05-05 18:35 41.75841 8.62867 4505 ft 208 kts 123°
2026-05-05 18:35 41.75318 8.64623 4445 ft 202 kts 105°
2026-05-05 18:36 41.75239 8.66502 4329 ft 202 kts 86°
2026-05-05 18:36 41.75606 8.68337 3989 ft 208 kts 67°
2026-05-05 18:36 41.76433 8.69962 3435 ft 220 kts 46°
2026-05-05 18:36 41.77694 8.71112 2988 ft 216 kts 24°
2026-05-05 18:37 41.79027 8.71932 2686 ft 206 kts 25°
2026-05-05 18:37 41.80287 8.72716 2405 ft 198 kts 25°
2026-05-05 18:37 41.81539 8.73493 2144 ft 195 kts 25°
2026-05-05 18:37 41.82766 8.74255 1878 ft 193 kts 25°
2026-05-05 18:38 41.83913 8.74967 1654 ft 173 kts 26°
2026-05-05 18:38 41.84947 8.75610 1426 ft 159 kts 26°
2026-05-05 18:38 41.85918 8.76213 1212 ft 151 kts 25°
2026-05-05 18:38 41.86863 8.76801 1015 ft 148 kts 24°
2026-05-05 18:39 41.87792 8.77380 813 ft 145 kts 24°
2026-05-05 18:39 41.88703 8.77946 616 ft 143 kts 24°
2026-05-05 18:39 41.89597 8.78505 434 ft 141 kts 25°
2026-05-05 18:39 41.90474 8.79055 225 ft 140 kts 24°
2026-05-05 18:40 41.91364 8.79605 34 ft 139 kts 24°
2026-05-05 18:40 41.92150 8.80093 28 ft 100 kts 25°
2026-05-05 18:40 41.92548 8.80342 26 ft 49 kts 24°
2026-05-05 18:40 41.92743 8.80453 28 ft 9 kts 357°
2026-05-05 18:41 41.92775 8.80406 29 ft 5 kts 297°
2026-05-05 18:41 41.92787 8.80375 30 ft 2 kts 296°
2026-05-05 18:41 41.92792 8.80363 30 ft 1 kts 296°
2026-05-05 18:41 41.92812 8.80304 30 ft 15 kts 294°
2026-05-05 18:42 41.92822 8.80222 28 ft 10 kts 246°
2026-05-05 18:42 41.92736 8.80129 27 ft 20 kts 210°
2026-05-05 18:42 41.92567 8.80021 28 ft 32 kts 204°
2026-05-05 18:42 41.92363 8.79894 27 ft 32 kts 205°
2026-05-05 18:43 41.92162 8.79767 28 ft 33 kts 204°
2026-05-05 18:43 41.91962 8.79645 27 ft 14 kts 205°
2026-05-05 18:43 41.91944 8.79588 28 ft 7 kts 292°
2026-05-05 18:43 41.91969 8.79572 26 ft 0 kts 347°